Weather History for Basel, Switzerland

Change the Weather History Date:

Tuesday, November 5, 2013

  Actual Average Record
Temperature  
Mean Temperature 44 °F -  
Max Temperature 51 °F 45 °F 64 °F (2010)
Min Temperature 37 °F 33 °F 28 °F (2006)
Degree Days  
Heating Degree Days 21    
Moisture  
Dew Point 40 °F    
Average Humidity 79    
Maximum Humidity 93    
Minimum Humidity 58    
Precipitation  
Precipitation 0.01 in - - ()
Sea Level Pressure  
Sea Level Pressure 29.60 in    
Wind  
Wind Speed 6 mph ()    
Max Wind Speed 16 mph    
Max Gust Speed 39 mph    
Visibility 6.6 miles    
Events Rain    
Averages and records for this station are not official NWS values.
T = Trace of Precipitation, MM = Missing Value Source: Averaged Metar Reports

Daily Weather History Graph

Daily Weather History Graph

Search for Another Location

Airport:

Trip Planner

Search our weather history database for the weather conditions in past years. The results will help you decide how hot, cold, wet, or windy it might be!

Date:

Astronomy

Nov. 05, 2013 Rise Set
Actual Time 7:20 AM CET 5:06 PM CET
Civil Twilight 6:47 AM CET 5:38 PM CET
Nautical Twilight 6:10 AM CET 6:15 PM CET
Astronomical Twilight 5:34 AM CET 6:51 PM CET
Moon 9:24 AM CET (11/5) 6:45 PM CET (11/5)
Length of Visible Light 10h 51m
Length of Day
9h 46m
Waxing Crescent, 5% of the Moon is Illuminated
Nov 5
Waxing Crescent
Nov 10
First Quarter
Nov 17
Full
Nov 25
Last Quarter
Dec 3
New

Hourly Weather History & Observations

Time (CET) Temp. Windchill Dew Point Humidity Pressure Visibility Wind Dir Wind Speed Gust Speed Precip Events Conditions
12:00 AM 48.2 °F - 44.6 °F 87% 29.53 in 6.2 mi West 11.5 mph - N/A   Scattered Clouds
12:30 AM 48.2 °F - 42.8 °F 82% 29.53 in 6.2 mi West 9.2 mph - N/A   Overcast
1:00 AM 47 °F - 43 °F 79% 29.58 in 37 mi West 6.9 mph - -   Clear
1:00 AM 46.4 °F 42.9 °F 42.8 °F 87% 29.56 in 6.2 mi West 6.9 mph - N/A   Overcast
1:30 AM 46.4 °F 43.5 °F 42.8 °F 87% 29.56 in 6.2 mi WNW 5.8 mph - N/A   Mostly Cloudy
2:00 AM 46.4 °F 45.2 °F 41.0 °F 81% 29.59 in 6.2 mi Variable 3.5 mph - N/A   Mostly Cloudy
2:30 AM 46.4 °F 44.3 °F 41.0 °F 81% 29.59 in 6.2 mi West 4.6 mph - N/A   Overcast
3:00 AM 46.4 °F 43.5 °F 41.0 °F 81% 29.59 in 6.2 mi NW 5.8 mph - N/A   Overcast
3:30 AM 44.6 °F 40.7 °F 41.0 °F 87% 29.62 in 6.2 mi NW 6.9 mph - N/A   Mostly Cloudy
4:00 AM 44.6 °F 41.4 °F 41.0 °F 87% 29.62 in 6.2 mi WNW 5.8 mph - N/A   Mostly Cloudy
4:30 AM 44.6 °F 43.1 °F 39.2 °F 81% 29.62 in 6.2 mi Variable 3.5 mph - N/A   Mostly Cloudy
5:00 AM 42.8 °F 41.1 °F 37.4 °F 81% 29.62 in 6.2 mi Variable 3.5 mph - N/A   Scattered Clouds
5:30 AM 41.0 °F 36.4 °F 37.4 °F 87% 29.65 in 6.2 mi WSW 6.9 mph - N/A   Scattered Clouds
6:00 AM 41.0 °F 36.4 °F 37.4 °F 87% 29.65 in 6.2 mi WSW 6.9 mph - N/A   Partly Cloudy
6:30 AM 41.0 °F 35.8 °F 37.4 °F 87% 29.65 in - WSW 8.1 mph - N/A   Clear
7:00 AM 39 °F - 36 °F 85% 29.70 in 19 mi WSW 5.8 mph - -   Partly Cloudy
7:00 AM 39.2 °F 35.0 °F 35.6 °F 87% 29.65 in - WSW 5.8 mph - N/A   Clear
7:30 AM 37.4 °F 34.9 °F 35.6 °F 93% 29.65 in 6.2 mi Variable 3.5 mph - N/A   Scattered Clouds
8:00 AM 39.2 °F - 37.4 °F 93% 29.68 in 6.2 mi Variable 2.3 mph - N/A   Scattered Clouds
8:30 AM 41.0 °F 39.0 °F 37.4 °F 87% 29.68 in 6.2 mi Variable 3.5 mph - N/A   Scattered Clouds
9:00 AM 44.6 °F - 41.0 °F 87% 29.68 in 6.2 mi Variable 2.3 mph - N/A   Partly Cloudy
9:30 AM 46.4 °F - 39.2 °F 76% 29.68 in 6.2 mi Variable 2.3 mph - N/A   Scattered Clouds
10:00 AM 46.4 °F 44.3 °F 39.2 °F 76% 29.68 in 6.2 mi WNW 4.6 mph - N/A   Mostly Cloudy
10:30 AM 46.4 °F 43.5 °F 39.2 °F 76% 29.68 in 6.2 mi WNW 5.8 mph - N/A   Mostly Cloudy
11:00 AM 46.4 °F 45.2 °F 39.2 °F 76% 29.65 in 6.2 mi Variable 3.5 mph - N/A   Mostly Cloudy
11:30 AM 48.2 °F - 39.2 °F 71% 29.62 in 6.2 mi Variable 2.3 mph - N/A   Mostly Cloudy
12:00 PM 48.2 °F - 39.2 °F 71% 29.62 in 6.2 mi ESE 4.6 mph - N/A   Mostly Cloudy
12:30 PM 48.2 °F - 39.2 °F 71% 29.59 in 6.2 mi ESE 3.5 mph - N/A   Mostly Cloudy
1:00 PM 49 °F - 39 °F 58% 29.61 in 25 mi ESE 2.3 mph - -   Overcast
1:00 PM 48.2 °F - 39.2 °F 71% 29.59 in 6.2 mi Variable 3.5 mph - N/A   Overcast
1:30 PM 50.0 °F - 39.2 °F 66% 29.59 in 6.2 mi Calm Calm - N/A   Overcast
2:00 PM 50.0 °F - 39.2 °F 66% 29.56 in 6.2 mi Variable 3.5 mph - N/A   Overcast
2:30 PM 50.0 °F - 39.2 °F 66% 29.56 in 6.2 mi WNW 4.6 mph - N/A   Overcast
3:00 PM 50.0 °F - 39.2 °F 66% 29.56 in 6.2 mi West 3.5 mph - N/A   Overcast
3:30 PM 48.2 °F - 39.2 °F 71% 29.56 in 6.2 mi West 4.6 mph - N/A   Mostly Cloudy
4:00 PM 48.2 °F - 35.6 °F 62% 29.56 in 6.2 mi WSW 9.2 mph - N/A Rain Light Rain
4:30 PM 46.4 °F 41.9 °F 35.6 °F 66% 29.56 in 6.2 mi SW 9.2 mph - N/A Rain Light Rain
5:00 PM 44.6 °F 41.4 °F 37.4 °F 76% 29.53 in 6.2 mi South 5.8 mph - N/A Rain Light Rain
5:30 PM 44.6 °F 40.2 °F 39.2 °F 81% 29.53 in 6.2 mi SE 8.1 mph - N/A Rain Light Rain
6:00 PM 46.4 °F 42.4 °F 39.2 °F 76% 29.53 in 6.2 mi SE 8.1 mph - N/A   Mostly Cloudy
6:30 PM 46.4 °F 43.5 °F 39.2 °F 76% 29.53 in 6.2 mi ESE 5.8 mph - N/A   Mostly Cloudy
7:00 PM 46 °F - 41 °F 75% 29.55 in 19 mi North 2.3 mph - -   Partly Cloudy
7:00 PM 46.4 °F - 41.0 °F 81% 29.53 in 6.2 mi Variable 2.3 mph - N/A   Mostly Cloudy
7:30 PM 46.4 °F - 41.0 °F 81% 29.53 in 6.2 mi Variable 2.3 mph - N/A Rain Light Rain
8:00 PM 46.4 °F 44.3 °F 41.0 °F 81% 29.53 in 6.2 mi East 4.6 mph - N/A   Mostly Cloudy
8:30 PM 50.0 °F - 44.6 °F 82% 29.53 in 6.2 mi West 9.2 mph - N/A   Mostly Cloudy
9:00 PM 50.0 °F - 46.4 °F 87% 29.56 in 4.3 mi West 10.4 mph - N/A Rain Rain
9:30 PM 50.0 °F - 46.4 °F 87% 29.56 in 4.3 mi WSW 5.8 mph - N/A Rain Rain
10:00 PM 51.8 °F - 46.4 °F 82% 29.56 in 6.2 mi West 13.8 mph - N/A Rain Light Rain
10:30 PM 50.0 °F - 46.4 °F 87% 29.59 in 1.9 mi West 16.1 mph 39.1 mph N/A Rain Rain
11:00 PM 48.2 °F - 44.6 °F 87% 29.62 in 5.6 mi West 11.5 mph - N/A Rain Light Rain
11:30 PM 48.2 °F - 44.6 °F 87% 29.65 in 6.2 mi West 9.2 mph - N/A   Mostly Cloudy